Wetterdaten: Mittwoch, 13.04.2016
Datum Zeit Temp. Auen Feucht Auen Luftdruck Regen Richtung Richtung Windben
13.04.2016 00:00 4,2 C 90 % 1010,4 hPa 0,0 mm N-NW 342 0,0 km/h (0 Bft)
13.04.2016 00:05 4,3 C 90 % 1010,3 hPa 0,0 mm N-NW 342 0,0 km/h (0 Bft)
13.04.2016 00:10 4,3 C 90 % 1010,3 hPa 0,0 mm N-NW 342 0,0 km/h (0 Bft)
13.04.2016 00:15 4,3 C 90 % 1010,4 hPa 0,0 mm N-NW 342 1,6 km/h (1 Bft)
13.04.2016 00:20 4,4 C 90 % 1010,4 hPa 0,0 mm N-NW 342 0,0 km/h (0 Bft)
13.04.2016 00:25 4,1 C 90 % 1010,4 hPa 0,0 mm N-NW 342 0,0 km/h (0 Bft)
13.04.2016 00:30 4,0 C 90 % 1010,4 hPa 0,0 mm N-NW 342 0,0 km/h (0 Bft)
13.04.2016 00:35 3,9 C 90 % 1010,3 hPa 0,0 mm N-NW 342 0,0 km/h (0 Bft)
13.04.2016 00:40 3,8 C 90 % 1010,3 hPa 0,0 mm N-NW 342 0,0 km/h (0 Bft)
13.04.2016 00:45 3,8 C 90 % 1010,3 hPa 0,0 mm N-NW 342 1,6 km/h (1 Bft)
13.04.2016 00:50 3,8 C 90 % 1010,2 hPa 0,0 mm N-NW 342 0,0 km/h (0 Bft)
13.04.2016 00:55 3,8 C 90 % 1010,2 hPa 0,0 mm N-NW 342 1,6 km/h (1 Bft)
13.04.2016 01:00 3,9 C 90 % 1010,2 hPa 0,0 mm N-NW 342 0,0 km/h (0 Bft)
13.04.2016 01:05 3,6 C 90 % 1010,2 hPa 0,0 mm N-NW 342 0,0 km/h (0 Bft)
13.04.2016 01:10 3,4 C 90 % 1010,2 hPa 0,0 mm N-NW 342 1,6 km/h (1 Bft)
13.04.2016 01:15 3,5 C 90 % 1010,1 hPa 0,0 mm N-NW 342 0,0 km/h (0 Bft)
13.04.2016 01:20 3,6 C 90 % 1010,1 hPa 0,0 mm N-NW 342 0,0 km/h (0 Bft)
13.04.2016 01:25 3,5 C 90 % 1010,2 hPa 0,0 mm N-NW 342 0,0 km/h (0 Bft)
13.04.2016 01:30 3,6 C 90 % 1010,1 hPa 0,0 mm N-NW 342 0,0 km/h (0 Bft)
13.04.2016 01:35 3,7 C 90 % 1010,0 hPa 0,0 mm N-NW 342 0,0 km/h (0 Bft)
13.04.2016 01:40 3,4 C 90 % 1010,0 hPa 0,0 mm N-NW 342 1,6 km/h (1 Bft)
13.04.2016 01:45 3,2 C 90 % 1010,0 hPa 0,0 mm N-NW 342 1,6 km/h (1 Bft)
13.04.2016 01:50 3,2 C 90 % 1009,9 hPa 0,0 mm N-NW 342 1,6 km/h (1 Bft)
13.04.2016 01:55 3,4 C 89 % 1010,0 hPa 0,0 mm N-NW 342 1,6 km/h (1 Bft)
13.04.2016 02:00 3,3 C 89 % 1010,0 hPa 0,0 mm N-NW 342 1,6 km/h (1 Bft)
13.04.2016 02:05 3,2 C 90 % 1010,0 hPa 0,0 mm N-NW 342 1,6 km/h (1 Bft)
13.04.2016 02:10 3,4 C 89 % 1009,9 hPa 0,0 mm N-NW 342 0,0 km/h (0 Bft)
13.04.2016 02:15 3,2 C 90 % 1009,9 hPa 0,0 mm N-NW 342 1,6 km/h (1 Bft)
13.04.2016 02:20 2,8 C 90 % 1009,9 hPa 0,0 mm N-NW 342 0,0 km/h (0 Bft)
13.04.2016 02:25 3,1 C 89 % 1009,9 hPa 0,0 mm N-NW 342 1,6 km/h (1 Bft)
13.04.2016 02:30 3,4 C 89 % 1009,9 hPa 0,0 mm N-NW 342 0,0 km/h (0 Bft)
13.04.2016 02:35 3,7 C 89 % 1010,0 hPa 0,0 mm N-NW 342 0,0 km/h (0 Bft)
13.04.2016 02:40 3,6 C 89 % 1010,0 hPa 0,0 mm N-NW 342 1,6 km/h (1 Bft)
13.04.2016 02:45 3,5 C 89 % 1009,9 hPa 0,0 mm N-NW 342 0,0 km/h (0 Bft)
13.04.2016 02:50 3,4 C 89 % 1010,0 hPa 0,0 mm N-NW 342 0,0 km/h (0 Bft)
13.04.2016 02:55 3,4 C 89 % 1010,0 hPa 0,0 mm N-NW 342 1,6 km/h (1 Bft)
13.04.2016 03:00 3,4 C 89 % 1010,0 hPa 0,0 mm N-NW 342 0,0 km/h (0 Bft)
13.04.2016 03:05 3,2 C 89 % 1010,0 hPa 0,0 mm NW 316 3,2 km/h (1 Bft)
13.04.2016 03:10 2,6 C 90 % 1009,9 hPa 0,0 mm NW 312 3,2 km/h (1 Bft)
13.04.2016 03:15 2,8 C 89 % 1010,0 hPa 0,0 mm NW 309 3,2 km/h (1 Bft)
13.04.2016 03:20 3,4 C 89 % 1010,0 hPa 0,0 mm NW 309 3,2 km/h (1 Bft)
13.04.2016 03:25 3,3 C 89 % 1009,9 hPa 0,0 mm NW 309 3,2 km/h (1 Bft)
13.04.2016 03:30 3,0 C 89 % 1009,9 hPa 0,0 mm NW 309 0,0 km/h (0 Bft)
13.04.2016 03:35 3,2 C 89 % 1009,9 hPa 0,0 mm NW 309 0,0 km/h (0 Bft)
13.04.2016 03:40 3,2 C 89 % 1009,9 hPa 0,0 mm NW 309 0,0 km/h (0 Bft)
13.04.2016 03:45 3,2 C 89 % 1009,9 hPa 0,0 mm NW 309 1,6 km/h (1 Bft)
13.04.2016 03:50 3,4 C 89 % 1010,0 hPa 0,0 mm NW 309 0,0 km/h (0 Bft)
13.04.2016 03:55 3,8 C 88 % 1010,0 hPa 0,0 mm NW 309 3,2 km/h (1 Bft)
13.04.2016 04:00 4,0 C 88 % 1010,0 hPa 0,0 mm NW 309 3,2 km/h (1 Bft)
13.04.2016 04:05 3,7 C 89 % 1010,0 hPa 0,0 mm NW 309 0,0 km/h (0 Bft)
13.04.2016 04:10 3,7 C 89 % 1010,0 hPa 0,0 mm NW 309 0,0 km/h (0 Bft)
13.04.2016 04:15 3,8 C 88 % 1009,9 hPa 0,0 mm NW 309 0,0 km/h (0 Bft)
13.04.2016 04:20 4,0 C 88 % 1009,9 hPa 0,0 mm NW 309 0,0 km/h (0 Bft)
13.04.2016 04:25 4,1 C 88 % 1010,0 hPa 0,0 mm NW 309 3,2 km/h (1 Bft)
13.04.2016 04:30 4,3 C 88 % 1010,0 hPa 0,0 mm NW 309 1,6 km/h (1 Bft)
13.04.2016 04:35 4,3 C 88 % 1010,0 hPa 0,0 mm NW 309 4,8 km/h (1 Bft)
13.04.2016 04:40 4,5 C 88 % 1010,0 hPa 0,0 mm NW 309 3,2 km/h (1 Bft)
13.04.2016 04:45 4,4 C 88 % 1010,1 hPa 0,0 mm NW 309 0,0 km/h (0 Bft)
13.04.2016 04:50 4,1 C 88 % 1010,1 hPa 0,0 mm NW 309 0,0 km/h (0 Bft)
13.04.2016 04:55 4,1 C 88 % 1010,0 hPa 0,0 mm NW 309 0,0 km/h (0 Bft)
13.04.2016 05:00 4,2 C 88 % 1010,1 hPa 0,0 mm NW 309 0,0 km/h (0 Bft)
13.04.2016 05:05 4,2 C 88 % 1010,1 hPa 0,0 mm NW 309 1,6 km/h (1 Bft)
13.04.2016 05:10 4,2 C 88 % 1010,3 hPa 0,0 mm NW 304 3,2 km/h (1 Bft)
13.04.2016 05:15 4,4 C 88 % 1010,2 hPa 0,0 mm W-NW 298 4,8 km/h (1 Bft)
13.04.2016 05:20 4,8 C 88 % 1010,2 hPa 0,0 mm W 279 6,4 km/h (2 Bft)
13.04.2016 05:25 5,1 C 87 % 1010,2 hPa 0,0 mm W 270 3,2 km/h (1 Bft)
13.04.2016 05:30 5,2 C 88 % 1010,4 hPa 0,0 mm W 267 6,4 km/h (2 Bft)
13.04.2016 05:35 5,2 C 88 % 1010,4 hPa 0,0 mm W 267 4,8 km/h (1 Bft)
13.04.2016 05:40 5,3 C 88 % 1010,4 hPa 0,0 mm W 267 4,8 km/h (1 Bft)
13.04.2016 05:45 5,4 C 88 % 1010,4 hPa 0,0 mm W 267 4,8 km/h (1 Bft)
13.04.2016 05:50 5,5 C 88 % 1010,5 hPa 0,0 mm W 267 3,2 km/h (1 Bft)
13.04.2016 05:55 5,7 C 88 % 1010,4 hPa 0,0 mm W 267 4,8 km/h (1 Bft)
13.04.2016 06:00 5,8 C 88 % 1010,4 hPa 0,0 mm W 267 4,8 km/h (1 Bft)
13.04.2016 06:05 5,9 C 88 % 1010,3 hPa 0,0 mm W 267 3,2 km/h (1 Bft)
13.04.2016 06:10 5,9 C 88 % 1010,3 hPa 0,0 mm W 267 1,6 km/h (1 Bft)
13.04.2016 06:15 6,0 C 88 % 1010,4 hPa 0,0 mm W 267 0,0 km/h (0 Bft)
13.04.2016 06:20 6,0 C 88 % 1010,3 hPa 0,0 mm W 267 0,0 km/h (0 Bft)
13.04.2016 06:25 6,0 C 88 % 1010,4 hPa 0,0 mm W 267 0,0 km/h (0 Bft)
13.04.2016 06:30 5,8 C 88 % 1010,4 hPa 0,0 mm W 267 1,6 km/h (1 Bft)
13.04.2016 06:35 5,9 C 88 % 1010,4 hPa 0,0 mm W 267 3,2 km/h (1 Bft)
13.04.2016 06:40 5,8 C 89 % 1010,4 hPa 0,0 mm W 267 3,2 km/h (1 Bft)
13.04.2016 06:45 5,8 C 89 % 1010,5 hPa 0,0 mm W 267 4,8 km/h (1 Bft)
13.04.2016 06:50 5,7 C 89 % 1010,4 hPa 0,0 mm W 267 3,2 km/h (1 Bft)
13.04.2016 06:55 5,6 C 89 % 1010,4 hPa 0,0 mm W 267 1,6 km/h (1 Bft)
13.04.2016 07:00 5,6 C 89 % 1010,4 hPa 0,0 mm W 267 1,6 km/h (1 Bft)
13.04.2016 07:05 4,9 C 89 % 1010,4 hPa 0,0 mm W 267 1,6 km/h (1 Bft)
13.04.2016 07:10 4,7 C 89 % 1010,4 hPa 0,0 mm W 267 1,6 km/h (1 Bft)
13.04.2016 07:15 5,3 C 88 % 1010,3 hPa 0,0 mm W 267 0,0 km/h (0 Bft)
13.04.2016 07:20 6,1 C 87 % 1010,4 hPa 0,0 mm W 267 0,0 km/h (0 Bft)
13.04.2016 07:25 6,6 C 88 % 1010,3 hPa 0,0 mm W 267 1,6 km/h (1 Bft)
13.04.2016 07:30 6,8 C 88 % 1010,3 hPa 0,0 mm W 267 1,6 km/h (1 Bft)
13.04.2016 07:35 7,0 C 88 % 1010,3 hPa 0,0 mm W 267 0,0 km/h (0 Bft)
13.04.2016 07:40 7,3 C 88 % 1010,2 hPa 0,0 mm W 267 0,0 km/h (0 Bft)
13.04.2016 07:45 7,6 C 89 % 1010,2 hPa 0,0 mm W 267 0,0 km/h (0 Bft)
13.04.2016 07:50 8,1 C 89 % 1010,1 hPa 0,0 mm W 267 1,6 km/h (1 Bft)
13.04.2016 07:55 8,4 C 89 % 1010,1 hPa 0,0 mm W 267 3,2 km/h (1 Bft)
13.04.2016 08:00 8,9 C 89 % 1010,0 hPa 0,0 mm W 267 3,2 km/h (1 Bft)
13.04.2016 08:05 9,5 C 88 % 1009,9 hPa 0,0 mm W 267 3,2 km/h (1 Bft)
13.04.2016 08:10 9,8 C 87 % 1009,9 hPa 0,0 mm W 267 6,4 km/h (2 Bft)
13.04.2016 08:15 10,1 C 88 % 1009,8 hPa 0,0 mm W 267 3,2 km/h (1 Bft)
13.04.2016 08:20 10,4 C 87 % 1009,7 hPa 0,0 mm W 267 1,6 km/h (1 Bft)
13.04.2016 08:25 10,8 C 87 % 1009,6 hPa 0,0 mm W 267 3,2 km/h (1 Bft)
13.04.2016 08:30 11,1 C 86 % 1009,5 hPa 0,0 mm W 267 3,2 km/h (1 Bft)
13.04.2016 08:35 11,3 C 85 % 1009,5 hPa 0,0 mm W 267 1,6 km/h (1 Bft)
13.04.2016 08:40 11,0 C 84 % 1009,4 hPa 0,0 mm W 262 1,6 km/h (1 Bft)
13.04.2016 08:45 10,9 C 85 % 1009,4 hPa 0,0 mm S-SW 199 4,8 km/h (1 Bft)
13.04.2016 08:50 11,0 C 84 % 1009,2 hPa 0,0 mm S-SW 195 3,2 km/h (1 Bft)
13.04.2016 08:55 10,6 C 84 % 1009,1 hPa 0,0 mm S-SW 192 4,8 km/h (1 Bft)
13.04.2016 09:00 11,0 C 85 % 1009,1 hPa 0,0 mm S 191 4,8 km/h (1 Bft)
13.04.2016 09:05 11,1 C 83 % 1008,9 hPa 0,0 mm S 191 3,2 km/h (1 Bft)
13.04.2016 09:10 11,4 C 82 % 1008,9 hPa 0,0 mm S 191 0,0 km/h (0 Bft)
13.04.2016 09:15 11,4 C 82 % 1008,9 hPa 0,0 mm S 191 1,6 km/h (1 Bft)
13.04.2016 09:20 11,4 C 82 % 1008,8 hPa 0,0 mm S 191 3,2 km/h (1 Bft)
13.04.2016 09:25 11,6 C 82 % 1008,7 hPa 0,0 mm S 191 3,2 km/h (1 Bft)
13.04.2016 09:30 11,9 C 81 % 1008,6 hPa 0,0 mm S 191 3,2 km/h (1 Bft)
13.04.2016 09:35 12,1 C 83 % 1008,5 hPa 0,0 mm S 191 1,6 km/h (1 Bft)
13.04.2016 09:40 12,3 C 80 % 1008,5 hPa 0,0 mm S-SO 148 4,8 km/h (1 Bft)
13.04.2016 09:45 12,2 C 81 % 1008,4 hPa 0,0 mm S-SO 148 4,8 km/h (1 Bft)
13.04.2016 09:50 12,6 C 79 % 1008,5 hPa 0,0 mm S-SO 153 4,8 km/h (1 Bft)
13.04.2016 09:55 12,4 C 81 % 1008,4 hPa 0,0 mm S-SO 153 3,2 km/h (1 Bft)
13.04.2016 10:00 13,5 C 81 % 1008,3 hPa 0,0 mm NW 317 3,2 km/h (1 Bft)
13.04.2016 10:05 14,3 C 75 % 1008,4 hPa 0,0 mm NW 315 4,8 km/h (1 Bft)
13.04.2016 10:10 14,3 C 72 % 1008,3 hPa 0,0 mm NW 315 4,8 km/h (1 Bft)
13.04.2016 10:15 14,2 C 77 % 1008,3 hPa 0,0 mm N 5 4,8 km/h (1 Bft)
13.04.2016 10:20 13,8 C 77 % 1008,2 hPa 0,0 mm O 79 3,2 km/h (1 Bft)
13.04.2016 10:25 14,4 C 79 % 1008,2 hPa 0,0 mm S-SW 213 3,2 km/h (1 Bft)
13.04.2016 10:30 14,6 C 73 % 1008,2 hPa 0,0 mm S 172 3,2 km/h (1 Bft)
13.04.2016 10:35 14,1 C 78 % 1008,2 hPa 0,0 mm S 170 4,8 km/h (1 Bft)
13.04.2016 10:40 14,3 C 78 % 1008,2 hPa 0,0 mm S-SW 200 6,4 km/h (2 Bft)
13.04.2016 10:45 14,1 C 74 % 1008,2 hPa 0,0 mm S-SO 162 6,4 km/h (2 Bft)
13.04.2016 10:50 14,7 C 77 % 1008,1 hPa 0,0 mm SW 233 4,8 km/h (1 Bft)
13.04.2016 10:55 16,3 C 71 % 1008,1 hPa 0,0 mm W 263 8,0 km/h (2 Bft)
13.04.2016 11:00 16,0 C 70 % 1008,0 hPa 0,0 mm W 265 6,4 km/h (2 Bft)
13.04.2016 11:05 16,0 C 70 % 1007,9 hPa 0,0 mm W-NW 284 8,0 km/h (2 Bft)
13.04.2016 11:10 16,8 C 68 % 1007,9 hPa 0,0 mm SW 221 9,7 km/h (2 Bft)
13.04.2016 11:15 16,8 C 69 % 1007,8 hPa 0,0 mm W-NW 299 8,0 km/h (2 Bft)
13.04.2016 11:20 17,4 C 66 % 1007,7 hPa 0,0 mm W-NW 286 8,0 km/h (2 Bft)
13.04.2016 11:25 17,2 C 68 % 1007,7 hPa 0,0 mm W-NW 283 6,4 km/h (2 Bft)
13.04.2016 11:30 16,5 C 69 % 1007,6 hPa 0,0 mm W-SW 251 6,4 km/h (2 Bft)
13.04.2016 11:35 17,2 C 67 % 1007,6 hPa 0,0 mm W 266 9,7 km/h (2 Bft)
13.04.2016 11:40 16,5 C 72 % 1007,4 hPa 0,0 mm W 272 4,8 km/h (1 Bft)
13.04.2016 11:45 16,9 C 69 % 1007,3 hPa 0,0 mm W-NW 286 6,4 km/h (2 Bft)
13.04.2016 11:50 16,9 C 70 % 1007,2 hPa 0,0 mm W 259 3,2 km/h (1 Bft)
13.04.2016 11:55 16,1 C 68 % 1007,1 hPa 0,0 mm S-SO 161 8,0 km/h (2 Bft)
13.04.2016 12:00 15,8 C 72 % 1007,0 hPa 0,0 mm S 180 8,0 km/h (2 Bft)
13.04.2016 12:05 16,2 C 73 % 1006,9 hPa 0,0 mm S-SO 157 4,8 km/h (1 Bft)
13.04.2016 12:10 17,6 C 72 % 1006,8 hPa 0,0 mm W 279 6,4 km/h (2 Bft)
13.04.2016 12:15 18,1 C 64 % 1006,8 hPa 0,0 mm S-SO 165 6,4 km/h (2 Bft)
13.04.2016 12:20 16,5 C 71 % 1006,6 hPa 0,0 mm S 169 4,8 km/h (1 Bft)
13.04.2016 12:25 17,2 C 71 % 1006,5 hPa 0,0 mm W-NW 282 8,0 km/h (2 Bft)
13.04.2016 12:30 16,4 C 72 % 1006,5 hPa 0,0 mm W-SW 251 6,4 km/h (2 Bft)
13.04.2016 12:35 18,2 C 68 % 1006,4 hPa 0,0 mm W-NW 285 9,7 km/h (2 Bft)
13.04.2016 12:40 18,3 C 68 % 1006,3 hPa 0,0 mm S-SO 164 8,0 km/h (2 Bft)
13.04.2016 12:45 18,4 C 66 % 1006,2 hPa 0,0 mm S 180 8,0 km/h (2 Bft)
13.04.2016 12:50 18,4 C 66 % 1006,1 hPa 0,0 mm W 277 6,4 km/h (2 Bft)
13.04.2016 12:55 18,2 C 63 % 1006,0 hPa 0,0 mm N-NO 26 6,4 km/h (2 Bft)
13.04.2016 13:00 18,4 C 64 % 1005,9 hPa 0,0 mm S-SW 198 4,8 km/h (1 Bft)
13.04.2016 13:05 19,3 C 66 % 1005,9 hPa 0,0 mm W-NW 283 8,0 km/h (2 Bft)
13.04.2016 13:10 19,3 C 64 % 1005,8 hPa 0,0 mm W 277 11,3 km/h (2 Bft)
13.04.2016 13:15 19,3 C 64 % 1005,8 hPa 0,0 mm W 271 9,7 km/h (2 Bft)
13.04.2016 13:20 19,2 C 65 % 1005,7 hPa 0,0 mm W-SW 258 9,7 km/h (2 Bft)
13.04.2016 13:25 19,4 C 65 % 1005,6 hPa 0,0 mm S 185 9,7 km/h (2 Bft)
13.04.2016 13:30 18,8 C 65 % 1005,5 hPa 0,0 mm W-SW 257 11,3 km/h (2 Bft)
13.04.2016 13:35 19,6 C 62 % 1005,5 hPa 0,0 mm W 271 11,3 km/h (2 Bft)
13.04.2016 13:40 19,3 C 67 % 1005,4 hPa 0,0 mm W 274 6,4 km/h (2 Bft)
13.04.2016 13:45 19,0 C 63 % 1005,4 hPa 0,0 mm N 5 9,7 km/h (2 Bft)
13.04.2016 13:50 19,2 C 67 % 1005,2 hPa 0,0 mm NO 38 6,4 km/h (2 Bft)
13.04.2016 13:55 20,1 C 64 % 1005,2 hPa 0,0 mm W-NW 286 6,4 km/h (2 Bft)
13.04.2016 14:00 19,5 C 65 % 1005,1 hPa 0,0 mm W 276 8,0 km/h (2 Bft)
13.04.2016 14:05 19,7 C 66 % 1005,0 hPa 0,0 mm W 278 6,4 km/h (2 Bft)
13.04.2016 14:10 19,4 C 66 % 1005,0 hPa 0,0 mm W-NW 284 4,8 km/h (1 Bft)
13.04.2016 14:15 19,7 C 63 % 1004,9 hPa 0,0 mm W-SW 248 3,2 km/h (1 Bft)
13.04.2016 14:20 18,7 C 64 % 1004,8 hPa 0,0 mm S-SO 161 6,4 km/h (2 Bft)
13.04.2016 14:25 18,3 C 65 % 1004,7 hPa 0,0 mm NO 55 4,8 km/h (1 Bft)
13.04.2016 14:30 18,4 C 65 % 1004,7 hPa 0,0 mm O 101 4,8 km/h (1 Bft)
13.04.2016 14:35 18,4 C 67 % 1004,6 hPa 0,0 mm S-SO 147 6,4 km/h (2 Bft)
13.04.2016 14:40 18,6 C 70 % 1004,4 hPa 0,0 mm O 101 11,3 km/h (2 Bft)
13.04.2016 14:45 18,7 C 67 % 1004,4 hPa 0,0 mm O 96 14,5 km/h (3 Bft)
13.04.2016 14:50 18,6 C 69 % 1004,4 hPa 0,0 mm O-SO 105 14,5 km/h (3 Bft)
13.04.2016 14:55 18,6 C 68 % 1004,3 hPa 0,0 mm O 93 14,5 km/h (3 Bft)
13.04.2016 15:00 18,4 C 66 % 1004,2 hPa 0,0 mm O-SO 109 14,5 km/h (3 Bft)
13.04.2016 15:05 18,5 C 68 % 1004,1 hPa 0,0 mm O 81 8,0 km/h (2 Bft)
13.04.2016 15:10 18,8 C 73 % 1004,0 hPa 0,0 mm O-SO 103 11,3 km/h (2 Bft)
13.04.2016 15:15 18,6 C 66 % 1003,9 hPa 0,0 mm O-SO 102 12,9 km/h (3 Bft)
13.04.2016 15:20 18,5 C 68 % 1003,8 hPa 0,0 mm S-SO 157 14,5 km/h (3 Bft)
13.04.2016 15:25 18,5 C 68 % 1003,8 hPa 0,0 mm NO 49 11,3 km/h (2 Bft)
13.04.2016 15:30 18,3 C 66 % 1003,7 hPa 0,0 mm SO 137 12,9 km/h (3 Bft)
13.04.2016 15:35 18,3 C 67 % 1003,6 hPa 0,0 mm O-SO 105 12,9 km/h (3 Bft)
13.04.2016 15:40 18,4 C 68 % 1003,5 hPa 0,0 mm O-SO 108 12,9 km/h (3 Bft)
13.04.2016 15:45 18,3 C 66 % 1003,4 hPa 0,0 mm SO 140 12,9 km/h (3 Bft)
13.04.2016 15:50 18,3 C 69 % 1003,4 hPa 0,0 mm O-SO 102 9,7 km/h (2 Bft)
13.04.2016 15:55 18,3 C 66 % 1003,3 hPa 0,0 mm S-SO 147 14,5 km/h (3 Bft)
13.04.2016 16:00 18,3 C 68 % 1003,3 hPa 0,0 mm SO 141 11,3 km/h (2 Bft)
13.04.2016 16:05 18,2 C 70 % 1003,3 hPa 0,0 mm O 98 12,9 km/h (3 Bft)
13.04.2016 16:10 18,2 C 68 % 1003,1 hPa 0,0 mm SO 126 16,1 km/h (3 Bft)
13.04.2016 16:15 18,0 C 69 % 1003,1 hPa 0,0 mm SO 125 16,1 km/h (3 Bft)
13.04.2016 16:20 18,1 C 69 % 1003,0 hPa 0,0 mm SO 126 12,9 km/h (3 Bft)
13.04.2016 16:25 18,1 C 70 % 1003,0 hPa 0,0 mm O-SO 119 12,9 km/h (3 Bft)
13.04.2016 16:30 18,1 C 70 % 1002,9 hPa 0,0 mm NO 53 12,9 km/h (3 Bft)
13.04.2016 16:35 18,1 C 69 % 1002,8 hPa 0,0 mm SO 134 12,9 km/h (3 Bft)
13.04.2016 16:40 18,1 C 70 % 1002,7 hPa 0,0 mm O 91 12,9 km/h (3 Bft)
13.04.2016 16:45 18,1 C 68 % 1002,7 hPa 0,0 mm O 88 11,3 km/h (2 Bft)
13.04.2016 16:50 18,1 C 69 % 1002,7 hPa 0,0 mm O-SO 113 11,3 km/h (2 Bft)
13.04.2016 16:55 18,1 C 68 % 1002,7 hPa 0,0 mm O 94 9,7 km/h (2 Bft)
13.04.2016 17:00 17,4 C 69 % 1002,8 hPa 0,0 mm O 90 14,5 km/h (3 Bft)
13.04.2016 17:05 16,9 C 71 % 1002,7 hPa 0,0 mm O-NO 70 8,0 km/h (2 Bft)
13.04.2016 17:10 16,7 C 74 % 1002,7 hPa 0,0 mm O-NO 78 8,0 km/h (2 Bft)
13.04.2016 17:15 16,7 C 72 % 1002,6 hPa 0,0 mm O-SO 103 8,0 km/h (2 Bft)
13.04.2016 17:20 16,7 C 72 % 1002,6 hPa 0,0 mm O 83 9,7 km/h (2 Bft)
13.04.2016 17:25 16,7 C 71 % 1002,4 hPa 0,0 mm O 94 11,3 km/h (2 Bft)
13.04.2016 17:30 16,4 C 71 % 1002,3 hPa 0,0 mm O-SO 103 8,0 km/h (2 Bft)
13.04.2016 17:35 16,2 C 71 % 1002,2 hPa 0,0 mm O 89 9,7 km/h (2 Bft)
13.04.2016 17:40 16,3 C 69 % 1002,5 hPa 0,0 mm O 88 8,0 km/h (2 Bft)
13.04.2016 17:45 16,1 C 70 % 1002,4 hPa 0,0 mm O-NO 60 8,0 km/h (2 Bft)
13.04.2016 17:50 16,2 C 67 % 1002,6 hPa 0,0 mm NO 53 8,0 km/h (2 Bft)
13.04.2016 17:55 16,3 C 66 % 1002,6 hPa 0,0 mm O-NO 69 6,4 km/h (2 Bft)
13.04.2016 18:00 16,3 C 67 % 1002,8 hPa 0,0 mm NO 39 9,7 km/h (2 Bft)
13.04.2016 18:05 16,1 C 64 % 1004,6 hPa 0,0 mm W-SW 248 41,8 km/h (6 Bft)
13.04.2016 18:10 14,4 C 67 % 1005,3 hPa 0,0 mm W-NW 291 40,2 km/h (6 Bft)
13.04.2016 18:15 12,8 C 76 % 1005,3 hPa 0,4 mm W-NW 287 46,7 km/h (6 Bft)
13.04.2016 18:20 11,2 C 82 % 1005,8 hPa 2,2 mm W 270 40,2 km/h (6 Bft)
13.04.2016 18:25 10,1 C 85 % 1006,1 hPa 2,8 mm W 270 46,7 km/h (6 Bft)
13.04.2016 18:30 9,6 C 87 % 1006,5 hPa 1,8 mm W 279 30,6 km/h (5 Bft)
13.04.2016 18:35 9,3 C 88 % 1006,7 hPa 1,2 mm W-SW 255 29,0 km/h (5 Bft)
13.04.2016 18:40 9,2 C 89 % 1006,8 hPa 1,0 mm W 278 22,5 km/h (4 Bft)
13.04.2016 18:45 9,3 C 88 % 1006,9 hPa 0,8 mm W-NW 283 25,7 km/h (4 Bft)
13.04.2016 18:50 9,4 C 88 % 1007,1 hPa 0,6 mm W 266 20,9 km/h (4 Bft)
13.04.2016 18:55 9,4 C 88 % 1007,4 hPa 0,4 mm W 277 19,3 km/h (3 Bft)
13.04.2016 19:00 9,4 C 88 % 1007,5 hPa 0,4 mm W-NW 290 16,1 km/h (3 Bft)
13.04.2016 19:05 9,4 C 88 % 1007,7 hPa 0,2 mm W 269 25,7 km/h (4 Bft)
13.04.2016 19:10 9,4 C 88 % 1007,8 hPa 0,0 mm W 273 24,1 km/h (4 Bft)
13.04.2016 19:15 9,6 C 87 % 1007,9 hPa 0,0 mm W-NW 286 16,1 km/h (3 Bft)
13.04.2016 19:20 9,6 C 87 % 1008,0 hPa 0,0 mm W-NW 284 17,7 km/h (3 Bft)
13.04.2016 19:25 9,5 C 88 % 1008,0 hPa 0,0 mm W 259 16,1 km/h (3 Bft)
13.04.2016 19:30 9,5 C 88 % 1008,1 hPa 0,0 mm W 272 16,1 km/h (3 Bft)
13.04.2016 19:35 9,4 C 88 % 1008,2 hPa 0,0 mm W 275 16,1 km/h (3 Bft)
13.04.2016 19:40 9,4 C 88 % 1008,3 hPa 0,0 mm W-SW 251 11,3 km/h (2 Bft)
13.04.2016 19:45 9,4 C 88 % 1008,3 hPa 0,0 mm W 259 14,5 km/h (3 Bft)
13.04.2016 19:50 9,4 C 88 % 1008,4 hPa 0,0 mm W 273 12,9 km/h (3 Bft)
13.04.2016 19:55 9,3 C 88 % 1008,5 hPa 0,0 mm W 271 19,3 km/h (3 Bft)
13.04.2016 20:00 9,4 C 88 % 1008,6 hPa 0,0 mm W-SW 258 16,1 km/h (3 Bft)
13.04.2016 20:05 9,4 C 88 % 1008,6 hPa 0,0 mm W 266 12,9 km/h (3 Bft)
13.04.2016 20:10 9,4 C 88 % 1008,7 hPa 0,0 mm W 259 9,7 km/h (2 Bft)
13.04.2016 20:15 9,5 C 88 % 1008,7 hPa 0,0 mm W 272 6,4 km/h (2 Bft)
13.04.2016 20:20 9,6 C 88 % 1008,9 hPa 0,2 mm W-SW 250 8,0 km/h (2 Bft)
13.04.2016 20:25 9,6 C 87 % 1009,0 hPa 0,0 mm W 265 4,8 km/h (1 Bft)
13.04.2016 20:30 9,6 C 87 % 1009,0 hPa 0,0 mm W 268 4,8 km/h (1 Bft)
13.04.2016 20:35 9,5 C 87 % 1009,0 hPa 0,2 mm W-SW 257 9,7 km/h (2 Bft)
13.04.2016 20:40 9,5 C 87 % 1009,0 hPa 0,2 mm W 265 9,7 km/h (2 Bft)
13.04.2016 20:45 9,5 C 87 % 1009,1 hPa 0,0 mm W-SW 257 8,0 km/h (2 Bft)
13.04.2016 20:50 9,4 C 87 % 1009,1 hPa 0,4 mm W 281 8,0 km/h (2 Bft)
13.04.2016 20:55 9,4 C 87 % 1009,1 hPa 0,4 mm W-NW 282 14,5 km/h (3 Bft)
13.04.2016 21:00 9,4 C 87 % 1009,1 hPa 0,2 mm W 275 8,0 km/h (2 Bft)
13.04.2016 21:05 9,4 C 87 % 1009,1 hPa 0,2 mm W 264 4,8 km/h (1 Bft)
13.04.2016 21:10 9,4 C 87 % 1009,1 hPa 0,2 mm W 261 8,0 km/h (2 Bft)
13.04.2016 21:15 9,3 C 87 % 1009,1 hPa 0,2 mm W 261 3,2 km/h (1 Bft)
13.04.2016 21:20 9,3 C 87 % 1009,2 hPa 0,2 mm W 261 1,6 km/h (1 Bft)
13.04.2016 21:25 9,3 C 87 % 1009,2 hPa 0,2 mm W 261 4,8 km/h (1 Bft)
13.04.2016 21:30 9,3 C 86 % 1009,2 hPa 0,0 mm W 261 1,6 km/h (1 Bft)
13.04.2016 21:35 9,3 C 86 % 1009,1 hPa 0,2 mm W 270 6,4 km/h (2 Bft)
13.04.2016 21:40 9,2 C 87 % 1009,1 hPa 0,0 mm W-NW 291 8,0 km/h (2 Bft)
13.04.2016 21:45 9,2 C 87 % 1009,0 hPa 0,0 mm W 267 6,4 km/h (2 Bft)
13.04.2016 21:50 9,1 C 87 % 1009,0 hPa 0,0 mm W-NW 291 9,7 km/h (2 Bft)
13.04.2016 21:55 9,1 C 87 % 1009,0 hPa 0,0 mm W 268 8,0 km/h (2 Bft)
13.04.2016 22:00 9,1 C 87 % 1009,0 hPa 0,0 mm W 267 8,0 km/h (2 Bft)
13.04.2016 22:05 9,1 C 87 % 1009,0 hPa 0,0 mm W-SW 254 11,3 km/h (2 Bft)
13.04.2016 22:10 9,1 C 88 % 1009,0 hPa 0,0 mm W-NW 284 4,8 km/h (1 Bft)
13.04.2016 22:15 9,1 C 88 % 1009,0 hPa 0,0 mm W 273 8,0 km/h (2 Bft)
13.04.2016 22:20 9,0 C 88 % 1009,0 hPa 0,0 mm W 269 4,8 km/h (1 Bft)
13.04.2016 22:25 9,0 C 88 % 1009,0 hPa 0,0 mm W 273 4,8 km/h (1 Bft)
13.04.2016 22:30 9,0 C 88 % 1008,9 hPa 0,0 mm W 271 3,2 km/h (1 Bft)
13.04.2016 22:35 9,0 C 88 % 1009,0 hPa 0,0 mm W 271 1,6 km/h (1 Bft)
13.04.2016 22:40 9,0 C 88 % 1008,9 hPa 0,0 mm W 271 3,2 km/h (1 Bft)
13.04.2016 22:45 9,0 C 88 % 1009,0 hPa 0,0 mm W 271 3,2 km/h (1 Bft)
13.04.2016 22:50 8,9 C 88 % 1009,0 hPa 0,0 mm W 271 3,2 km/h (1 Bft)
13.04.2016 22:55 8,9 C 88 % 1009,1 hPa 0,0 mm W 271 0,0 km/h (0 Bft)
13.04.2016 23:00 8,9 C 88 % 1009,1 hPa 0,0 mm W 271 0,0 km/h (0 Bft)
13.04.2016 23:05 8,9 C 88 % 1009,1 hPa 0,0 mm W 271 0,0 km/h (0 Bft)
13.04.2016 23:10 8,9 C 88 % 1009,1 hPa 0,0 mm W 271 0,0 km/h (0 Bft)
13.04.2016 23:15 8,7 C 88 % 1009,2 hPa 0,0 mm W 271 0,0 km/h (0 Bft)
13.04.2016 23:20 8,7 C 87 % 1009,2 hPa 0,0 mm W 271 0,0 km/h (0 Bft)
13.04.2016 23:25 8,7 C 87 % 1009,2 hPa 0,0 mm W 271 0,0 km/h (0 Bft)
13.04.2016 23:30 8,6 C 87 % 1009,1 hPa 0,0 mm W 271 0,0 km/h (0 Bft)
13.04.2016 23:35 8,6 C 87 % 1009,1 hPa 0,0 mm W 271 0,0 km/h (0 Bft)
13.04.2016 23:40 8,5 C 87 % 1009,1 hPa 0,0 mm W 271 0,0 km/h (0 Bft)
13.04.2016 23:45 8,5 C 87 % 1009,1 hPa 0,0 mm W 271 0,0 km/h (0 Bft)
13.04.2016 23:50 8,4 C 87 % 1009,0 hPa 0,0 mm W 271 0,0 km/h (0 Bft)
13.04.2016 23:55 8,4 C 87 % 1008,9 hPa 0,0 mm W 271 0,0 km/h (0 Bft)
_ Min-Zeit 03:15 13:35 17:35 - - - 00:00
Minimum _ 2,5 C 62 % 1002,2 hPa - - - 0,0 km/h (0 Bft)
_ Max-Zeit 13:55 00:00 05:50 18:25 - - 18:15
Maximum _ 20,1 C 90 % 1010,5 hPa 2,8 mm - - 46,7 km/h
W (6 Bft)
Durchschnitt _ 10,6 C 81 % 1008,0 hPa #14,6 mm W - 6,5 km/h (2 Bft)